Wetbulb
54.36 50.46 48.75 50.51 52.29 52.33 51.51 50.81 50.18 52.04 53.83 52.33 53.06 53.43 55.13 57.35 57.83 57.83 58.75 59.78 60.82 61.20 66.03 70.13 72.69 73.53 74.20 74.60 77.35 77.80 77.15 79.54 76.94 74.88 73.59 72.67 71.57 72.26 72.12 71.93 71.79 71.11 70.39 69.75
52.72 49.26 52.20 52.80 52.25 51.49 51.45 49.73 49.74 51.97 53.31 52.69 52.51 52.22 54.39 56.35 57.32 57.92 58.39 59.75 60.69 61.68 64.51 69.32 72.51 73.88 73.89 74.42 74.63 76.34 77.71 79.41 78.07 75.76 75.49 74.11 72.63 72.37 72.03 71.83 70.61 70.48 69.97 68.54
51.51 52.22 53.08 50.63 51.14 50.22 50.72 49.78 50.17 49.91 52.01 53.09 52.06 50.77 52.95 55.90 57.45 58.29 60.31 62.80 62.95 62.36 65.08 70.53 72.01 73.46 73.98 73.91 74.11 74.53 75.77 77.43 77.12 77.32 74.83 73.96 73.81 72.62 70.96 70.19 69.32 69.09 67.90 66.57
52.41 54.28 51.63 50.68 49.89 50.94 48.65 52.13 50.90 49.93 49.19 46.32 52.98 45.93 52.96 55.15 55.85 57.66 59.84 62.12 62.91 64.71 66.52 71.07 71.45 72.30 73.49 73.87 74.87 74.99 75.30 75.65 75.65 75.62 75.25 74.62 71.13 69.97 70.59 70.17 69.65 67.52 67.05 67.10
50.45 51.04 51.06 50.38 50.96 52.17 49.55 52.66 51.17 51.16 50.15 50.34 49.87 48.70 51.76 55.30 54.18 55.48 58.57 61.98 63.76 64.60 66.38 67.74 70.78 71.78 73.01 73.70 73.91 74.43 74.95 74.83 74.83 74.64 74.84 72.47 73.20 71.42 70.99 70.19 68.03 68.48 66.88 65.65
51.70 54.42 53.05 52.53 53.41 52.69 53.31 51.78 51.85 51.85 50.26 45.31 49.33 48.64 48.95 52.41 54.66 56.22 58.87 61.86 64.53 65.44 66.74 68.55 70.86 72.04 72.01 72.66 73.11 73.57 73.62 73.56 73.87 73.68 73.66 73.45 73.31 71.84 69.28 68.04 66.71 65.66 64.72 62.87
50.88 50.55 53.30 53.53 51.68 53.43 52.39 50.60 45.45 44.71 44.94 44.08 50.57 48.71 50.35 55.00 56.08 56.75 56.93 58.65 62.19 65.67 66.51 68.48 69.91 69.98 70.57 71.39 72.38 72.55 72.74 71.03 72.02 72.25 72.45 71.69 71.56 70.54 69.60 67.78 65.83 64.56 61.85 61.36
48.12 46.68 51.37 53.11 51.51 50.84 51.77 51.18 46.49 41.73 43.50 46.02 51.43 46.86 50.91 55.95 57.52 57.90 58.46 59.73 60.94 62.67 65.15 67.32 70.16 69.63 70.31 71.35 71.87 72.07 71.44 68.96 69.58 69.80 69.73 70.19 70.19 69.06 67.51 66.21 63.50 62.68 62.25 61.35
48.51 47.91 51.87 51.78 52.63 52.32 49.94 49.03 52.80 48.64 49.28 46.10 48.81 52.19 55.13 56.30 56.40 56.77 57.26 59.61 60.82 62.83 65.70 67.44 69.82 69.74 70.32 71.20 71.62 71.32 71.20 70.12 68.84 68.95 69.01 69.00 67.91 66.83 64.65 63.95 63.44 61.40 61.56 60.57
52.28 48.07 51.43 51.80 52.93 52.66 51.16 52.74 48.04 48.56 42.25 41.41 46.53 48.57 49.12 53.48 54.60 56.15 56.73 58.25 59.85 65.02 66.67 67.76 69.32 69.85 70.79 71.45 71.37 71.32 71.12 69.37 68.80 68.39 67.75 66.09 64.81 64.20 63.65 62.61 61.67 61.06 61.48 59.82
53.08 51.77 50.80 51.90 50.12 49.74 50.46 48.25 50.30 51.18 49.43 44.68 44.18 47.49 55.91 55.50 56.02 56.79 57.44 58.41 59.36 63.15 66.36 68.28 69.46 69.67 70.46 70.94 69.96 70.00 69.35 68.43 67.39 66.82 65.80 64.39 63.48 63.23 62.49 61.99 61.72 61.17 60.73 59.82
54.33 52.67 48.71 50.31 53.94 54.19 52.56 51.40 52.17 47.04 46.48 48.83 47.25 47.01 56.04 56.65 56.88 57.87 57.44 58.77 59.46 63.60 67.01 68.67 69.53 69.07 69.95 69.45 69.16 68.69 68.32 66.91 66.21 65.43 64.14 63.41 63.13 62.57 62.12 61.90 61.64 60.83 59.84 59.85
55.11 51.20 46.75 48.66 51.99 54.15 51.61 52.38 52.43 52.63 52.58 48.13 45.53 47.54 56.32 56.57 56.44 57.65 57.75 58.05 58.82 63.15 66.89 68.16 69.02 68.33 69.40 68.82 68.31 67.81 66.98 65.83 65.00 64.05 63.25 62.88 61.93 61.85 61.98 61.78 61.46 60.66 59.90 59.61
53.86 52.33 50.14 46.18 49.39 52.34 50.77 51.84 52.52 52.36 48.29 48.64 49.07 50.52 53.69 55.47 56.42 57.83 58.81 59.32 59.17 61.68 65.88 68.02 68.25 68.04 69.11 68.62 67.82 66.75 65.92 65.42 64.54 63.37 62.60 61.94 61.59 62.49 62.45 61.55 60.84 60.36 59.80 58.90
52.78 48.38 50.73 51.21 51.46 51.07 50.86 50.40 51.11 50.68 51.48 49.09 50.86 51.29 54.31 56.68 57.51 58.57 59.77 60.52 59.80 60.24 64.64 67.98 67.79 68.61 69.08 68.19 67.48 66.37 65.54 64.71 64.03 62.29 61.27 62.47 62.84 62.91 62.01 60.77 60.23 59.77 59.45 58.54
53.52 47.55 49.08 47.38 49.91 50.33 48.72 49.91 50.33 50.28 50.45 50.48 50.96 50.80 55.62 57.31 58.11 58.25 59.11 59.83 59.83 59.88 62.89 66.63 68.83 68.79 68.16 67.64 66.77 65.87 64.69 63.76 63.44 62.25 62.14 62.98 62.53 61.84 60.84 60.64 60.01 59.80 58.64 58.11
50.11 48.34 46.68 43.20 47.60 47.84 45.17 48.60 49.60 50.33 51.73 51.39 48.60 52.64 55.73 55.54 56.66 58.14 60.38 62.47 61.44 61.45 61.88 66.28 68.29 69.21 69.04 68.15 66.95 65.01 64.07 63.75 62.71 62.40 62.60 62.21 61.76 60.52 59.98 59.88 58.77 57.39 57.85 58.25
47.77 47.57 46.82 43.14 45.90 38.48 48.30 52.54 51.99 50.74 51.56 53.17 53.51 54.08 55.17 56.16 58.39 59.82 63.81 63.64 64.21 65.76 63.95 65.56 68.33 70.02 69.72 68.05 66.37 65.34 63.99 62.92 62.27 62.30 61.98 61.73 60.60 59.57 59.00 58.23 57.17 57.93 58.51 57.73
50.23 47.57 43.77 41.24 41.83 45.32 47.47 50.14 49.81 49.34 49.50 54.20 54.98 55.79 57.49 59.14 59.47 60.21 62.71 63.29 64.72 65.93 67.08 67.83 69.33 70.37 69.75 67.40 65.73 64.39 63.12 62.49 62.23 62.10 61.86 60.66 60.08 58.77 57.93 56.60 57.13 57.96 57.96 57.53
49.15 48.84 44.66 43.19 39.23 37.86 47.59 51.46 54.45 54.06 46.03 55.79 56.24 55.90 56.83 58.23 53.49 56.98 61.84 63.26 64.56 66.57 67.64 68.32 69.37 70.15 68.49 65.24 65.43 63.50 62.61 62.29 62.05 62.32 61.37 60.74 59.26 58.29 56.69 57.34 57.80 57.88 57.40 56.13
44.92 44.64 41.19 40.79 39.89 43.65 49.94 52.50 54.28 45.05 49.11 56.06 56.62 57.38 57.35 55.95 57.76 60.30 61.86 62.85 64.75 66.12 66.75 68.07 68.69 68.18 65.24 63.42 64.54 63.21 62.88 62.06 63.13 62.12 60.57 59.55 58.35 56.75 58.20 57.84 57.59 56.56 55.92 55.66
44.47 43.18 42.97 43.16 40.16 37.68 51.24 50.39 47.86 54.65 56.30 55.53 55.28 56.62 55.18 55.62 56.49 57.70 59.90 61.59 63.45 64.82 66.16 66.53 66.66 64.55 63.39 63.28 64.09 62.91 62.48 63.30 61.79 60.59 59.13 57.55 57.56 57.49 56.37 56.45 55.94 55.58 55.71 55.34
41.69 45.63 44.94 46.56 45.84 52.96 55.43 56.06 56.90 55.71 54.52 54.04 55.22 56.06 55.61 54.27 54.61 56.20 57.09 60.53 63.10 64.65 65.50 66.63 63.65 62.59 63.00 63.55 64.27 62.80 61.92 61.57 60.14 58.82 57.24 57.16 56.84 57.19 56.52 55.22 55.60 54.70 56.01 54.21
47.66 50.40 46.46 47.54 50.20 52.13 54.15 55.79 56.08 55.38 53.43 54.26 55.31 54.86 54.57 53.38 54.65 55.21 56.81 58.46 62.11 64.19 64.72 64.45 62.61 61.31 61.76 62.79 63.43 61.99 60.93 60.08 58.64 57.36 56.81 57.19 56.71 55.26 55.91 55.53 55.13 54.15 53.58 52.65
46.08 48.29 46.24 46.04 48.72 50.30 51.45 52.62 53.15 52.77 52.67 52.67 53.30 53.38 53.35 53.78 54.58 55.94 56.44 57.39 61.43 63.76 63.10 62.28 61.37 60.85 60.71 61.30 60.32 58.95 58.70 58.88 56.96 56.42 56.53 56.36 56.08 55.80 55.54 56.07 55.01 53.83 55.45 51.07
46.34 44.46 42.38 42.07 48.21 47.96 48.87 51.14 51.90 50.72 50.94 51.52 51.48 51.16 53.96 55.10 55.10 56.23 56.65 58.41 61.44 63.17 62.34 60.42 60.49 60.74 59.26 59.07 57.37 56.91 58.21 57.76 56.73 55.22 55.58 54.02 54.27 54.37 54.01 53.91 53.96 45.19 43.90 44.05
MSLP
1007.64 1006.94 1005.50 1004.85 1004.44 1003.91 1003.68 1003.42 1002.71 1002.13 1002.15 1002.49 1002.40 1001.80 1001.29 1000.88 1000.59 1000.23 1000.36 1000.58 1000.59 1001.25 1001.63 1003.35 1004.71 1005.68 1006.56 1007.36 1008.06 1008.79 1009.37 1010.06 1010.64 1011.17 1011.59 1011.82 1012.12 1012.75 1013.20 1013.67 1014.76 1015.57 1015.96 1016.16
1006.69 1005.93 1004.99 1004.59 1004.51 1004.56 1004.63 1004.10 1003.31 1002.91 1002.82 1003.06 1002.49 1001.84 1001.18 1000.47 1000.27 1000.00 999.81 1000.00 1000.24 1000.51 1001.21 1002.89 1004.58 1005.91 1006.72 1007.38 1008.12 1008.81 1009.24 1009.81 1010.55 1010.90 1011.21 1011.34 1011.94 1012.45 1013.20 1013.87 1015.24 1015.61 1015.74 1016.21
1005.66 1004.57 1004.93 1005.03 1005.12 1005.11 1004.61 1004.10 1003.55 1003.27 1003.10 1003.05 1002.69 1001.60 1000.81 1000.17 999.77 999.56 999.90 1000.05 1000.24 1000.14 1001.26 1003.38 1005.06 1006.25 1007.11 1007.58 1008.05 1008.71 1009.35 1009.77 1010.50 1010.69 1011.33 1011.85 1012.14 1012.78 1013.51 1014.30 1015.14 1015.50 1015.99 1016.26
1005.27 1004.95 1005.29 1005.28 1005.23 1004.87 1004.22 1003.95 1003.97 1004.12 1003.72 1002.26 1001.11 1000.25 999.25 998.77 998.94 999.25 999.12 999.50 1000.26 1000.66 1001.35 1003.33 1004.90 1005.95 1006.76 1007.32 1007.98 1008.59 1009.35 1009.91 1010.62 1010.93 1011.17 1011.87 1012.20 1012.54 1013.06 1013.81 1014.37 1015.51 1016.04 1015.88
1004.84 1004.78 1004.86 1004.99 1004.89 1004.80 1004.47 1004.33 1004.38 1004.29 1003.55 1002.77 1001.48 1000.60 999.17 998.36 998.63 998.71 998.41 999.27 1000.23 1000.78 1001.78 1002.58 1004.06 1005.43 1006.43 1007.19 1008.00 1008.77 1009.43 1010.01 1010.34 1010.91 1011.27 1012.05 1011.98 1012.25 1013.04 1013.53 1015.03 1015.19 1015.92 1015.97
1005.06 1004.61 1004.91 1004.67 1004.51 1004.69 1004.80 1004.89 1004.77 1004.34 1003.52 1002.21 1001.34 1000.60 998.84 998.05 997.79 997.93 998.58 999.59 1000.64 1001.19 1001.89 1002.85 1004.19 1005.22 1006.56 1007.62 1008.17 1009.01 1009.64 1010.12 1010.65 1011.11 1011.33 1011.83 1011.80 1012.34 1013.12 1013.95 1014.64 1014.89 1015.26 1015.95
1004.57 1004.58 1004.47 1004.99 1004.60 1004.68 1004.64 1004.78 1003.88 1002.95 1002.12 1000.96 1000.19 999.68 998.91 998.18 998.39 998.68 999.05 999.52 999.87 1000.91 1001.87 1003.01 1004.44 1006.22 1006.69 1006.91 1007.78 1008.91 1009.65 1010.35 1010.88 1011.19 1011.64 1012.02 1012.41 1013.01 1013.43 1014.07 1014.05 1014.32 1014.80 1015.38
1003.30 1002.96 1003.34 1003.98 1004.47 1003.87 1004.05 1004.26 1003.55 1002.44 1001.19 999.96 998.66 999.06 998.92 998.97 999.08 999.21 999.68 1000.01 1000.10 1000.63 1001.19 1002.32 1004.15 1005.76 1006.22 1006.69 1007.66 1008.55 1009.84 1010.86 1011.35 1011.88 1012.29 1012.63 1012.96 1013.24 1013.60 1013.97 1014.13 1014.48 1014.86 1015.38
1003.79 1003.50 1003.51 1003.97 1004.04 1004.21 1003.81 1003.42 1003.79 1003.62 1003.00 1001.89 1000.12 998.88 998.97 999.02 999.34 999.51 999.31 999.54 1000.08 1000.70 1001.41 1002.23 1003.61 1005.50 1005.97 1006.65 1007.59 1008.54 1009.53 1010.68 1011.44 1011.95 1012.44 1012.92 1013.09 1013.49 1013.66 1014.47 1014.96 1015.14 1015.45 1015.42
1005.09 1004.37 1003.99 1004.02 1004.26 1003.92 1003.80 1003.36 1003.47 1003.89 1003.19 1001.96 1000.36 999.27 998.55 998.73 999.09 999.12 999.17 999.33 999.56 1000.23 1001.68 1002.52 1003.86 1005.36 1005.88 1006.66 1007.84 1008.69 1009.47 1010.48 1011.26 1011.95 1012.55 1013.04 1013.45 1013.87 1014.35 1014.76 1014.87 1015.11 1015.40 1015.72
1006.29 1005.74 1004.36 1003.76 1003.66 1002.89 1003.11 1003.43 1003.70 1003.63 1003.22 1002.21 1000.82 999.33 999.04 999.14 999.61 999.77 999.75 999.47 999.37 999.87 1001.57 1002.55 1003.86 1005.34 1005.87 1006.79 1007.96 1008.81 1009.60 1010.44 1011.22 1011.82 1012.38 1012.94 1013.40 1013.84 1014.26 1014.58 1014.94 1015.25 1015.46 1015.63
1007.05 1006.63 1005.09 1003.97 1003.04 1002.71 1002.76 1002.62 1002.86 1003.22 1003.21 1002.93 1002.24 1000.76 999.81 1000.00 1000.04 1000.04 999.98 999.62 999.29 1000.03 1001.41 1002.39 1003.56 1005.31 1005.82 1006.84 1007.73 1008.86 1009.52 1010.25 1010.95 1011.58 1012.18 1012.72 1013.34 1013.94 1014.27 1014.51 1014.86 1015.16 1015.40 1015.33
1008.68 1007.41 1006.07 1004.51 1003.54 1002.74 1002.81 1002.98 1003.20 1003.36 1003.45 1002.92 1002.33 1001.13 1000.29 1000.20 1000.29 1000.29 1000.07 999.89 999.71 999.59 1001.12 1002.21 1003.39 1005.02 1005.69 1006.78 1007.67 1008.62 1009.50 1010.03 1010.68 1011.56 1012.32 1012.99 1013.58 1013.77 1014.14 1014.45 1014.69 1015.00 1015.12 1015.20
1010.56 1008.72 1007.12 1005.16 1003.36 1003.78 1003.23 1003.05 1002.90 1002.73 1002.92 1002.50 1002.10 1001.42 1000.72 1000.37 1000.30 1000.37 1000.30 1000.04 999.72 999.70 1000.56 1002.18 1003.52 1004.83 1005.52 1006.59 1007.53 1008.65 1009.63 1010.26 1011.08 1011.71 1012.34 1013.05 1013.59 1013.76 1013.88 1014.20 1014.47 1014.69 1014.85 1014.89
1010.71 1009.46 1008.21 1006.70 1005.52 1004.63 1004.08 1003.66 1003.23 1002.87 1002.84 1002.61 1002.29 1001.65 1001.21 1000.93 1000.87 1000.74 1000.50 1000.14 999.92 999.96 1000.64 1001.95 1003.44 1004.22 1005.24 1006.43 1007.66 1008.77 1009.59 1010.25 1011.22 1012.09 1012.73 1013.10 1013.47 1013.73 1013.92 1014.10 1014.22 1014.39 1014.55 1014.58
1010.79 1010.32 1009.15 1007.42 1006.42 1005.39 1004.17 1003.69 1003.28 1003.00 1002.92 1002.52 1002.23 1001.67 1001.75 1001.23 1000.93 1000.49 1000.10 999.86 999.58 999.54 999.86 1001.23 1002.79 1003.97 1005.36 1006.58 1007.73 1008.62 1009.49 1010.49 1011.21 1011.87 1012.30 1012.71 1012.98 1013.29 1013.64 1013.85 1014.00 1014.11 1014.18 1014.23
1011.68 1011.04 1009.98 1007.68 1007.10 1005.75 1003.38 1003.42 1002.85 1002.54 1002.50 1002.17 1001.58 1001.31 1001.06 1000.67 1000.51 1000.42 1000.75 1000.74 1000.01 999.66 999.54 1000.34 1001.84 1003.49 1004.86 1006.18 1007.55 1008.57 1009.73 1010.67 1011.33 1011.69 1011.99 1012.35 1012.62 1012.86 1013.16 1013.45 1013.61 1013.82 1014.03 1014.16
1012.18 1011.59 1010.68 1008.87 1007.81 1004.73 1003.39 1002.86 1002.32 1002.06 1001.82 1001.54 1001.22 1001.04 1000.85 1000.75 1000.66 1000.94 1001.94 1002.51 1001.88 1000.98 999.91 1000.18 1001.44 1003.14 1004.61 1006.05 1007.46 1008.83 1010.07 1010.77 1011.10 1011.51 1011.58 1012.07 1012.38 1012.59 1012.91 1013.28 1013.49 1013.68 1013.81 1013.86
1011.91 1011.90 1010.70 1009.12 1007.26 1005.11 1003.92 1002.92 1002.81 1002.46 1002.55 1002.71 1002.94 1002.48 1002.30 1002.24 1002.00 1002.08 1003.30 1003.26 1003.16 1002.54 1001.77 1001.12 1001.47 1002.96 1004.62 1006.31 1007.76 1009.02 1010.08 1010.67 1010.68 1010.91 1011.31 1011.74 1012.08 1012.39 1012.78 1013.05 1013.29 1013.53 1013.61 1013.56
1010.94 1011.45 1011.22 1009.61 1007.55 1005.23 1004.01 1003.23 1003.25 1002.94 1003.02 1004.26 1004.72 1004.49 1004.47 1004.23 1003.26 1002.55 1004.22 1003.85 1003.60 1003.37 1002.72 1002.41 1002.55 1003.47 1005.22 1006.98 1008.47 1009.73 1010.23 1010.35 1010.75 1010.73 1011.12 1011.58 1012.07 1012.39 1012.60 1012.96 1013.31 1013.47 1013.53 1013.28
1010.55 1010.59 1010.14 1009.54 1008.07 1006.28 1004.99 1004.29 1004.38 1004.70 1006.07 1006.47 1006.51 1006.28 1006.18 1006.13 1006.27 1005.83 1005.28 1004.72 1004.12 1004.04 1003.70 1003.68 1003.79 1004.52 1006.17 1007.57 1008.77 1009.75 1010.14 1010.45 1010.66 1011.23 1011.51 1011.85 1012.27 1012.63 1012.67 1013.06 1013.29 1013.33 1013.19 1013.08
1009.59 1009.75 1009.21 1009.02 1007.98 1006.45 1005.90 1005.72 1005.95 1007.00 1007.41 1007.50 1007.48 1007.59 1007.83 1007.72 1007.35 1006.65 1005.90 1005.16 1004.23 1004.35 1004.28 1004.39 1004.99 1006.27 1007.29 1008.32 1009.12 1009.80 1010.31 1010.84 1011.37 1011.81 1011.82 1012.10 1012.43 1012.54 1012.42 1012.99 1013.17 1012.99 1012.93 1012.67
1009.88 1009.23 1008.57 1008.00 1007.03 1006.76 1006.83 1006.89 1006.98 1007.38 1007.75 1007.93 1008.31 1008.56 1008.55 1008.14 1007.79 1007.28 1006.51 1005.43 1004.55 1004.81 1005.26 1005.21 1006.10 1007.26 1008.29 1008.85 1009.33 1009.80 1010.59 1011.34 1011.90 1012.02 1012.10 1012.28 1012.45 1012.53 1012.73 1012.87 1012.80 1012.52 1011.97 1011.73
1009.79 1009.40 1009.11 1008.82 1008.08 1007.32 1007.03 1007.01 1006.98 1007.45 1007.93 1008.59 1008.87 1008.97 1008.74 1008.30 1007.89 1007.35 1006.71 1005.82 1004.87 1004.97 1005.62 1006.13 1007.14 1008.04 1008.75 1009.40 1009.83 1010.40 1010.89 1011.06 1011.87 1012.12 1012.40 1012.52 1012.55 1012.62 1012.77 1012.60 1011.95 1011.82 1011.71 1011.82
1010.78 1010.11 1009.61 1008.85 1008.82 1008.60 1008.09 1007.83 1007.66 1007.62 1008.50 1008.85 1008.82 1008.72 1008.36 1008.06 1007.45 1006.98 1006.39 1005.98 1005.18 1005.46 1006.46 1007.28 1008.00 1008.66 1009.25 1009.88 1010.63 1011.47 1011.87 1011.71 1011.64 1012.43 1012.70 1012.77 1012.41 1012.55 1012.34 1011.89 1011.69 1011.79 1011.84 1012.44
1011.98 1011.41 1010.71 1009.47 1009.66 1009.11 1008.53 1008.54 1008.55 1008.72 1008.92 1009.12 1009.00 1008.56 1008.28 1007.90 1007.45 1006.99 1006.45 1006.02 1005.18 1005.71 1007.24 1008.09 1008.74 1009.29 1010.00 1010.82 1011.22 1011.71 1012.06 1012.15 1011.92 1012.68 1012.76 1012.84 1012.52 1012.15 1011.70 1011.49 1011.31 1011.73 1012.08 1012.60
Wind_Speed
13 11 15 17 15 16 10 11 12 9 7 3 14 17 18 19 16 20 14 18 18 15 17 18 16 15 15 14 14 13 13 12 9 10 9 9 8 7 6 5 6 6 5 6
8 14 16 12 9 7 10 13 13 11 9 10 15 17 18 19 18 21 15 13 15 15 14 14 16 13 11 12 13 12 11 11 10 9 7 7 7 7 6 6 5 6 6 5
14 6 3 4 11 11 14 14 12 12 11 10 14 18 20 18 21 9 12 11 15 12 15 13 13 14 14 14 14 13 12 11 11 9 6 4 4 4 6 7 6 6 5 5
12 15 6 10 12 13 14 11 8 10 14 12 16 13 15 14 12 13 12 7 9 7 10 17 15 14 14 13 11 10 11 11 10 11 9 10 9 8 7 8 6 7 6 5
13 10 12 13 13 12 16 7 7 14 13 15 17 10 13 6 7 12 10 6 1 5 9 11 14 14 12 11 9 9 10 12 11 11 10 10 9 7 6 5 8 4 4 3
16 11 10 12 10 14 13 9 12 14 14 15 17 15 16 11 13 8 5 6 2 4 6 5 8 7 8 9 10 10 11 11 11 12 10 11 8 8 7 7 7 7 6 6
16 17 13 11 11 8 13 11 11 12 12 13 16 16 13 9 9 6 4 9 7 8 7 9 11 8 11 14 13 12 12 10 9 8 7 6 8 8 8 8 6 4 4 4
9 12 19 14 14 15 15 13 11 14 11 11 10 5 5 11 9 4 6 10 9 9 8 10 13 9 12 13 13 13 13 10 8 9 9 8 10 7 7 5 5 4 1 2
6 10 5 3 9 15 16 14 10 15 16 15 16 8 10 12 11 11 13 4 6 6 6 7 12 11 12 13 13 12 13 13 11 11 9 9 8 7 6 7 4 4 1 3
11 13 7 9 8 13 14 13 10 10 14 16 13 13 10 9 7 5 5 7 5 7 5 7 9 11 12 12 11 11 12 12 11 11 10 9 9 7 7 6 4 3 2 2
13 10 14 7 10 14 9 13 11 12 11 12 11 8 11 10 5 7 10 12 11 5 4 8 10 11 12 12 13 11 11 13 12 12 10 10 9 9 7 6 5 4 4 4
4 6 12 17 14 14 14 15 11 11 11 12 14 14 18 13 8 12 14 15 10 4 3 9 12 13 13 13 13 13 12 13 13 12 12 11 9 8 7 5 5 4 5 5
5 7 10 16 16 16 12 15 13 14 13 16 14 12 11 8 9 10 14 17 20 4 5 8 12 13 14 14 13 14 13 13 13 12 11 9 8 8 7 5 5 5 5 5
4 9 12 14 16 10 11 12 16 11 12 13 15 18 14 11 9 12 15 17 18 13 5 9 10 13 15 14 14 13 13 12 11 11 11 9 8 8 7 6 5 5 5 5
5 14 16 19 22 19 18 17 17 16 14 16 16 20 19 16 15 16 17 17 17 12 6 11 12 14 15 14 13 13 13 12 11 9 8 9 8 7 6 5 5 4 5 5
6 11 14 21 20 20 25 23 22 22 21 22 21 21 18 18 18 19 16 19 16 13 9 10 14 14 14 15 14 13 13 12 11 11 10 9 8 7 6 6 5 5 5 6
11 10 12 20 20 22 28 21 25 24 23 23 21 21 19 18 17 10 14 20 17 14 14 11 14 14 14 14 14 14 13 13 12 11 10 9 8 7 6 5 4 4 5 6
13 12 12 16 16 26 13 17 19 21 20 15 17 16 15 14 14 7 15 16 18 22 12 4 10 13 14 14 14 13 14 13 12 10 9 8 7 6 4 4 3 4 5 7
17 14 12 14 15 20 21 17 13 13 12 8 11 9 12 18 16 6 18 15 16 17 14 12 6 12 13 13 14 14 14 13 12 11 9 7 6 5 4 3 4 5 6 7
17 16 14 14 17 19 14 11 12 17 18 7 8 8 10 13 10 4 22 19 16 16 12 8 3 10 12 13 13 13 13 13 10 10 7 6 5 3 2 3 4 5 7 8
11 13 16 14 14 13 10 13 11 11 7 8 9 9 11 10 12 17 18 19 14 14 10 8 4 11 12 13 13 13 12 11 8 7 7 6 4 3 0 2 4 5 7 8
11 10 12 14 17 22 11 9 10 8 5 8 11 8 11 13 16 17 18 18 16 13 10 3 11 11 11 12 12 13 11 8 8 7 7 6 4 2 3 3 5 6 7 9
19 17 12 13 9 3 1 7 1 5 9 14 10 11 14 16 16 17 18 18 15 9 8 6 13 12 8 10 9 11 9 8 7 7 5 4 3 1 2 4 5 6 7 8
20 12 15 15 14 19 17 13 11 11 12 15 14 15 16 18 18 17 15 17 15 9 3 2 14 12 10 8 9 9 10 11 8 6 4 3 1 3 3 5 6 6 8 8
14 14 14 18 16 18 21 20 20 13 11 17 19 20 19 20 19 18 16 16 14 7 5 10 11 10 10 11 12 9 6 6 8 5 2 1 3 3 4 6 4 6 6 4
13 18 16 16 19 20 20 19 23 22 20 19 21 23 20 19 19 21 17 14 13 3 7 9 8 8 12 12 13 10 7 6 8 4 3 2 5 4 4 5 6 3 3 5
Wind_Direction
200 225 226 241 227 279 335 304 302 313 292 254 279 280 276 270 263 271 228 248 237 252 191 186 190 197 192 197 188 202 196 184 208 199 199 208 205 205 193 192 107 157 189 206
191 237 259 239 270 269 258 263 264 267 267 296 278 263 263 262 260 249 266 283 277 249 183 169 175 185 203 199 200 203 209 192 196 202 208 215 202 188 195 152 180 202 189 174
247 310 343 249 246 243 245 263 278 295 308 263 269 267 260 253 250 267 267 262 266 218 172 151 169 190 202 207 199 199 201 192 192 212 189 175 159 155 171 153 182 183 182 190
243 260 199 249 244 244 251 239 259 275 265 267 245 260 268 204 208 230 234 204 217 201 191 172 189 198 201 201 196 195 189 183 189 196 174 190 180 187 196 177 158 144 200 205
241 224 252 235 249 241 260 298 296 260 264 275 268 242 281 212 211 237 223 134 168 187 198 194 176 189 190 197 172 175 173 175 173 175 181 178 212 168 163 141 130 192 156 190
268 285 256 252 255 242 261 272 249 256 253 250 247 257 267 245 218 179 67 146 140 226 171 186 175 145 174 182 174 165 167 165 163 176 176 203 181 145 161 170 173 179 175 172
227 241 226 240 248 204 241 230 248 228 222 245 242 232 237 317 343 318 325 307 191 184 226 179 165 181 189 187 166 162 162 157 161 164 153 144 148 170 166 168 199 160 179 195
264 220 205 210 229 260 195 243 264 293 286 302 176 233 264 240 289 327 289 276 276 271 225 187 159 196 191 172 170 164 151 142 149 146 149 152 154 162 157 204 129 196 189 150
298 240 93 268 274 231 250 255 259 288 280 277 286 246 184 198 224 263 254 202 266 268 264 201 159 192 196 170 168 165 162 156 163 161 157 153 159 155 123 125 169 149 88 155
276 275 226 171 230 240 253 263 231 227 263 274 273 248 261 149 197 277 307 293 332 145 251 197 175 188 194 167 153 173 164 158 161 159 156 152 149 146 145 150 190 143 113 234
265 257 280 200 218 257 179 234 243 289 303 303 289 258 44 29 352 313 312 304 320 61 195 194 174 179 192 162 174 168 168 162 163 164 162 154 158 153 157 157 172 187 204 228
63 293 257 264 253 237 252 282 235 232 241 236 261 280 317 327 285 282 300 286 309 48 187 185 175 180 189 174 172 172 172 170 170 168 164 162 160 160 161 178 184 199 229 243
14 229 258 248 246 233 238 256 251 259 273 267 281 286 305 313 291 266 286 309 300 142 169 196 177 176 193 179 180 178 178 179 172 166 165 160 163 169 173 184 195 209 240 266
301 263 264 279 314 334 302 233 262 255 256 261 256 264 264 288 314 314 305 299 298 335 163 207 184 193 192 184 186 184 184 179 164 170 162 167 171 182 179 190 195 219 251 281
266 263 256 262 273 282 279 274 278 270 264 261 283 296 307 312 309 300 295 287 283 272 235 195 205 199 191 189 180 183 181 167 163 169 166 174 176 184 187 198 215 240 265 286
248 272 269 268 271 273 273 270 269 269 270 273 275 272 276 275 276 277 305 312 294 269 224 214 199 200 195 188 185 181 176 165 164 177 178 178 174 183 192 210 225 247 273 285
281 275 265 258 261 267 260 257 259 264 269 269 266 272 278 278 284 305 346 333 311 286 289 189 203 196 197 181 184 177 168 162 176 174 180 176 181 194 189 211 236 277 289 303
253 258 262 269 275 255 276 265 268 271 281 269 281 287 285 264 272 345 37 360 349 340 319 258 197 185 188 174 177 168 167 169 178 184 176 179 181 193 190 221 267 277 283 290
229 243 264 259 249 259 267 291 288 282 280 339 336 322 340 347 340 38 23 1 357 341 339 319 186 177 175 159 162 165 171 176 173 178 176 180 180 179 201 256 296 303 295 298
224 222 249 255 264 266 281 273 16 324 231 45 355 350 341 343 284 309 353 346 359 345 338 331 173 165 146 136 154 166 177 177 184 170 160 163 156 186 235 331 312 311 299 284
214 221 228 235 252 272 287 334 342 271 61 8 349 350 359 351 340 322 334 336 350 340 344 332 209 133 128 131 149 180 177 178 168 149 155 146 150 173 37 316 292 298 296 311
226 211 231 232 253 260 271 266 275 37 332 326 319 347 339 327 319 324 330 332 338 351 336 287 95 107 121 137 159 176 170 140 146 160 147 142 166 300 40 318 298 304 298 281
249 264 267 263 240 184 66 324 291 343 314 312 327 321 318 318 320 321 321 324 342 347 339 302 117 113 130 152 165 165 129 138 166 155 138 151 140 44 323 286 294 284 276 294
272 249 259 274 268 277 287 272 283 303 327 321 314 310 309 308 311 311 314 316 324 336 316 123 127 130 158 152 163 124 147 149 152 135 147 140 210 3 301 310 300 329 328 339
291 307 293 281 280 286 279 279 284 298 319 310 309 308 312 308 304 311 310 308 311 332 82 123 145 143 143 121 123 129 126 147 120 119 118 287 208 218 287 261 324 314 327 349
262 269 268 272 285 291 295 311 313 313 304 299 297 299 301 299 308 307 299 294 291 118 140 139 143 151 133 141 133 134 145 123 113 123 192 33 320 324 323 325 335 198 234 191